Year,Month,Day,Hour,Minute,Value (Times are PST for temperature in C)
2009,05,21,07,23,4.70
2009,05,21,07,24,4.70
2009,05,21,07,25,4.80
2009,05,21,07,26,4.80
2009,05,21,07,27,4.80
2009,05,21,07,28,4.80
2009,05,21,07,29,4.90
2009,05,21,07,30,4.90
2009,05,21,07,31,4.90
2009,05,21,07,32,5.00
2009,05,21,07,33,5.00
2009,05,21,07,34,5.10
2009,05,21,07,35,5.10
2009,05,21,07,36,5.10
2009,05,21,07,37,5.10
2009,05,21,07,38,5.10
2009,05,21,07,39,5.20
2009,05,21,07,40,5.20
2009,05,21,07,41,5.20
2009,05,21,07,42,5.20
2009,05,21,07,43,5.20
2009,05,21,07,44,5.20
2009,05,21,07,45,5.30
2009,05,21,07,46,5.30
2009,05,21,07,47,5.30
2009,05,21,07,48,5.40
2009,05,21,07,49,5.40
2009,05,21,07,50,5.50
2009,05,21,07,51,5.60
2009,05,21,07,52,5.70
2009,05,21,07,53,5.70
2009,05,21,07,54,5.80
2009,05,21,07,55,5.90
2009,05,21,07,56,6.00
2009,05,21,07,57,6.10
2009,05,21,07,58,6.20
2009,05,21,07,59,6.20
2009,05,21,08,00,6.30
2009,05,21,08,01,6.30
2009,05,21,08,02,6.40
2009,05,21,08,03,6.50
2009,05,21,08,04,6.50
2009,05,21,08,05,6.60
2009,05,21,08,06,6.70
2009,05,21,08,07,6.70
2009,05,21,08,08,6.80
2009,05,21,08,09,6.80
2009,05,21,08,10,6.90
2009,05,21,08,11,6.90
2009,05,21,08,12,7.00
2009,05,21,08,13,7.10
2009,05,21,08,14,7.10
2009,05,21,08,15,7.20
2009,05,21,08,16,7.20
2009,05,21,08,17,7.20
2009,05,21,08,18,7.30
2009,05,21,08,19,7.30
2009,05,21,08,20,7.30
2009,05,21,08,21,7.40
2009,05,21,08,22,7.40
2009,05,21,08,23,7.40
2009,05,21,08,24,7.50
2009,05,21,08,25,7.50
2009,05,21,08,26,7.60
2009,05,21,08,27,7.70
2009,05,21,08,28,7.70
2009,05,21,08,29,7.70
2009,05,21,08,30,7.70
2009,05,21,08,31,7.80
2009,05,21,08,32,7.80
2009,05,21,08,33,7.80
2009,05,21,08,34,7.90
2009,05,21,08,35,8.00
2009,05,21,08,36,8.00
2009,05,21,08,37,8.10
2009,05,21,08,38,8.10
2009,05,21,08,39,8.20
2009,05,21,08,40,8.20
2009,05,21,08,41,8.20
2009,05,21,08,42,8.30
2009,05,21,08,43,8.30
2009,05,21,08,44,8.40
2009,05,21,08,45,8.40
2009,05,21,08,46,8.40
2009,05,21,08,47,8.50
2009,05,21,08,48,8.60
2009,05,21,08,49,8.70
2009,05,21,08,50,8.70
2009,05,21,08,51,8.80
2009,05,21,08,52,8.90
2009,05,21,08,53,8.90
2009,05,21,08,54,9.00
2009,05,21,08,55,9.10
2009,05,21,08,56,9.20
2009,05,21,08,57,9.30
2009,05,21,08,58,9.40
2009,05,21,08,59,9.40
2009,05,21,09,00,9.50
2009,05,21,09,01,9.60
2009,05,21,09,02,9.60
2009,05,21,09,03,9.60
2009,05,21,09,04,9.60
2009,05,21,09,05,9.60
2009,05,21,09,06,9.70
2009,05,21,09,07,9.70
2009,05,21,09,08,9.80
2009,05,21,09,09,9.80
2009,05,21,09,10,9.90
2009,05,21,09,11,10.00
2009,05,21,09,12,10.10
2009,05,21,09,13,10.10
2009,05,21,09,14,10.20
2009,05,21,09,15,10.20
2009,05,21,09,16,10.30
2009,05,21,09,17,10.30
2009,05,21,09,18,10.40
2009,05,21,09,19,10.50
2009,05,21,09,20,10.60
2009,05,21,09,21,10.60
2009,05,21,09,22,10.60
2009,05,21,09,23,10.70
2009,05,21,09,24,10.70
2009,05,21,09,25,10.80
2009,05,21,09,26,10.90
2009,05,21,09,27,10.90
2009,05,21,09,28,10.90
2009,05,21,09,29,11.00
2009,05,21,09,30,11.10
2009,05,21,09,31,11.10
2009,05,21,09,32,11.20
2009,05,21,09,33,11.20
2009,05,21,09,34,11.30
2009,05,21,09,35,11.30
2009,05,21,09,36,11.40
2009,05,21,09,37,11.60
2009,05,21,09,38,11.70
2009,05,21,09,39,11.80
2009,05,21,09,40,11.80
2009,05,21,09,41,11.80
2009,05,21,09,42,11.80
2009,05,21,09,43,11.80
2009,05,21,09,44,11.90
2009,05,21,09,45,11.90
2009,05,21,09,46,12.00
2009,05,21,09,47,12.10
2009,05,21,09,48,12.20
2009,05,21,09,49,12.20
2009,05,21,09,50,12.30
2009,05,21,09,51,12.30
2009,05,21,09,52,12.30
2009,05,21,09,53,12.30
2009,05,21,09,54,12.30
2009,05,21,09,55,12.40
2009,05,21,09,56,12.50
2009,05,21,09,57,12.60
2009,05,21,09,58,12.70
2009,05,21,09,59,12.80
2009,05,21,10,00,12.80
2009,05,21,10,01,12.90
2009,05,21,10,02,13.00
2009,05,21,10,03,13.10
2009,05,21,10,04,13.20
2009,05,21,10,05,13.20
2009,05,21,10,06,13.30
2009,05,21,10,07,13.30
2009,05,21,10,08,13.30
2009,05,21,10,09,13.40
2009,05,21,10,10,13.50
2009,05,21,10,11,13.50
2009,05,21,10,12,13.50
2009,05,21,10,13,13.40
2009,05,21,10,14,13.20
2009,05,21,10,15,13.10
2009,05,21,10,16,13.00
2009,05,21,10,17,13.00
2009,05,21,10,18,13.00
2009,05,21,10,19,13.00
2009,05,21,10,20,13.10
2009,05,21,10,21,13.10
2009,05,21,10,22,13.20
2009,05,21,10,23,13.30
2009,05,21,10,24,13.20
2009,05,21,10,25,13.20
2009,05,21,10,26,13.10
2009,05,21,10,27,13.10
2009,05,21,10,28,13.10
2009,05,21,10,29,13.10
2009,05,21,10,30,13.10
2009,05,21,10,31,13.10
2009,05,21,10,32,13.00
2009,05,21,10,33,13.00
2009,05,21,10,34,12.90
2009,05,21,10,35,12.90
2009,05,21,10,36,12.90
2009,05,21,10,37,13.00
2009,05,21,10,38,13.10
2009,05,21,10,39,13.20
2009,05,21,10,40,13.30
2009,05,21,10,41,13.40
2009,05,21,10,42,13.50
2009,05,21,10,43,13.50
2009,05,21,10,44,13.60
2009,05,21,10,45,13.70
2009,05,21,10,46,13.80
2009,05,21,10,47,14.00
2009,05,21,10,48,14.20
2009,05,21,10,49,14.40
2009,05,21,10,50,14.60
2009,05,21,10,51,14.90
2009,05,21,10,52,15.00
2009,05,21,10,53,15.00
2009,05,21,10,54,15.00
2009,05,21,10,55,15.00
2009,05,21,10,56,15.00
2009,05,21,10,57,14.90
2009,05,21,10,58,14.70
2009,05,21,10,59,14.60
2009,05,21,11,00,14.60
2009,05,21,11,01,14.70
2009,05,21,11,02,14.80
2009,05,21,11,03,14.90
2009,05,21,11,04,15.00
2009,05,21,11,05,15.00
2009,05,21,11,06,15.00
2009,05,21,11,07,15.00
2009,05,21,11,08,15.00
2009,05,21,11,09,15.10
2009,05,21,11,10,15.20
2009,05,21,11,11,15.30
2009,05,21,11,12,15.40
2009,05,21,11,13,15.50
2009,05,21,11,14,15.60
2009,05,21,11,15,15.50
2009,05,21,11,16,15.40
2009,05,21,11,17,15.30
2009,05,21,11,18,15.30
2009,05,21,11,19,15.30
2009,05,21,11,20,15.20
2009,05,21,11,21,15.00
2009,05,21,11,22,15.00
2009,05,21,11,23,15.00
2009,05,21,11,24,15.00
2009,05,21,11,25,15.00
2009,05,21,11,26,15.00
2009,05,21,11,27,15.00
2009,05,21,11,28,15.00
2009,05,21,11,29,15.00
2009,05,21,11,30,15.00
2009,05,21,11,31,15.00
2009,05,21,11,32,15.10
2009,05,21,11,33,15.20
2009,05,21,11,34,15.20
2009,05,21,11,35,15.10
2009,05,21,11,36,15.10
2009,05,21,11,37,15.00
2009,05,21,11,38,15.10
2009,05,21,11,39,15.30
2009,05,21,11,40,15.40
2009,05,21,11,41,15.60
2009,05,21,11,42,15.70
2009,05,21,11,43,15.80
2009,05,21,11,44,15.80
2009,05,21,11,45,15.80
2009,05,21,11,46,15.60
2009,05,21,11,47,15.50
2009,05,21,11,48,15.50
2009,05,21,11,49,15.60
2009,05,21,11,50,15.60
2009,05,21,11,51,15.70
2009,05,21,11,52,15.80
2009,05,21,11,53,15.80
2009,05,21,11,54,15.80
2009,05,21,11,55,15.80
2009,05,21,11,56,15.70
2009,05,21,11,57,15.70
2009,05,21,11,58,15.60
2009,05,21,11,59,15.60
2009,05,21,12,00,15.60
2009,05,21,12,01,15.60
2009,05,21,12,02,15.60
2009,05,21,12,03,15.60
2009,05,21,12,04,15.60
2009,05,21,12,05,15.60
2009,05,21,12,06,15.60
2009,05,21,12,07,15.70
2009,05,21,12,08,15.80
2009,05,21,12,09,15.90
2009,05,21,12,10,16.00
2009,05,21,12,11,16.10
2009,05,21,12,12,16.00
2009,05,21,12,13,16.00
2009,05,21,12,14,15.90
2009,05,21,12,15,15.90
2009,05,21,12,16,16.00
2009,05,21,12,17,16.00
2009,05,21,12,18,16.10
2009,05,21,12,19,16.10
2009,05,21,12,20,16.20
2009,05,21,12,21,16.30
2009,05,21,12,22,16.40
2009,05,21,12,23,16.40
2009,05,21,12,24,16.40
2009,05,21,12,25,16.40
2009,05,21,12,26,16.30
2009,05,21,12,27,16.20
2009,05,21,12,28,16.00
2009,05,21,12,29,16.00
2009,05,21,12,30,16.10
2009,05,21,12,31,16.20
2009,05,21,12,32,16.20
2009,05,21,12,33,16.20
2009,05,21,12,34,16.00
2009,05,21,12,35,15.90
2009,05,21,12,36,16.00
2009,05,21,12,37,16.10
2009,05,21,12,38,16.20
2009,05,21,12,39,16.30
2009,05,21,12,40,16.20
2009,05,21,12,41,16.20
2009,05,21,12,42,16.30
2009,05,21,12,43,16.30
2009,05,21,12,44,16.40
2009,05,21,12,45,16.40
2009,05,21,12,46,16.40
2009,05,21,12,47,16.30
2009,05,21,12,48,16.30
2009,05,21,12,49,16.30
2009,05,21,12,50,16.30
2009,05,21,12,51,16.30
2009,05,21,12,52,16.20
2009,05,21,12,53,16.30
2009,05,21,12,54,16.30
2009,05,21,12,55,16.30
2009,05,21,12,56,16.40
2009,05,21,12,57,16.40
2009,05,21,12,58,16.50
2009,05,21,12,59,16.60
2009,05,21,13,00,16.60
2009,05,21,13,01,16.60
2009,05,21,13,02,16.60
2009,05,21,13,03,16.60
2009,05,21,13,04,16.60
2009,05,21,13,05,16.70
2009,05,21,13,06,16.80
2009,05,21,13,07,16.80
2009,05,21,13,08,16.80
2009,05,21,13,09,16.80
2009,05,21,13,10,16.80
2009,05,21,13,11,16.70
2009,05,21,13,12,16.80
2009,05,21,13,13,16.80
2009,05,21,13,14,16.80
2009,05,21,13,15,16.80
2009,05,21,13,16,16.90
2009,05,21,13,17,17.00
2009,05,21,13,18,17.00
2009,05,21,13,19,16.80
2009,05,21,13,20,16.80
2009,05,21,13,21,16.80
2009,05,21,13,22,16.80
2009,05,21,13,23,16.80
2009,05,21,13,24,16.90
2009,05,21,13,25,17.00
2009,05,21,13,26,17.00
2009,05,21,13,27,17.00
2009,05,21,13,28,17.00
2009,05,21,13,29,17.00
2009,05,21,13,30,17.00
2009,05,21,13,31,17.00
2009,05,21,13,32,17.00
2009,05,21,13,33,16.90
2009,05,21,13,34,16.90
2009,05,21,13,35,16.80
2009,05,21,13,36,16.90
2009,05,21,13,37,17.00
2009,05,21,13,38,17.10
2009,05,21,13,39,17.20
2009,05,21,13,40,17.20
2009,05,21,13,41,17.10
2009,05,21,13,42,17.10
2009,05,21,13,43,17.20
2009,05,21,13,44,17.20
2009,05,21,13,45,17.20
2009,05,21,13,46,17.20
2009,05,21,13,47,17.10
2009,05,21,13,48,17.00
2009,05,21,13,49,17.00
2009,05,21,13,50,17.10
2009,05,21,13,51,17.20
2009,05,21,13,52,17.30
2009,05,21,13,53,17.30
2009,05,21,13,54,17.30
2009,05,21,13,55,17.30
2009,05,21,13,56,17.30
2009,05,21,13,57,17.30
2009,05,21,13,58,17.40
2009,05,21,13,59,17.40
2009,05,21,14,00,17.30
2009,05,21,14,01,17.30
2009,05,21,14,02,17.40
2009,05,21,14,03,17.50
2009,05,21,14,04,17.50
2009,05,21,14,05,17.50
2009,05,21,14,06,17.50
2009,05,21,14,07,17.50
2009,05,21,14,08,17.60
2009,05,21,14,09,17.70
2009,05,21,14,10,17.70
2009,05,21,14,11,17.70
2009,05,21,14,12,17.80
2009,05,21,14,13,17.80
2009,05,21,14,14,17.80
2009,05,21,14,15,17.70
2009,05,21,14,16,17.70
2009,05,21,14,17,17.70
2009,05,21,14,18,17.60
2009,05,21,14,19,17.50
2009,05,21,14,20,17.40
2009,05,21,14,21,17.50
2009,05,21,14,22,17.70
2009,05,21,14,23,17.70
2009,05,21,14,24,17.80
2009,05,21,14,25,18.00
2009,05,21,14,26,18.10
2009,05,21,14,27,18.00
2009,05,21,14,28,17.90
2009,05,21,14,29,17.90
2009,05,21,14,30,17.80
2009,05,21,14,31,17.80
2009,05,21,14,32,17.70
2009,05,21,14,33,17.80
2009,05,21,14,34,17.80
2009,05,21,14,35,17.80
2009,05,21,14,36,17.80
2009,05,21,14,37,17.80
2009,05,21,14,38,17.80
2009,05,21,14,39,17.70
2009,05,21,14,40,17.80
2009,05,21,14,41,17.80
2009,05,21,14,42,17.80
2009,05,21,14,43,17.80
2009,05,21,14,44,17.80
2009,05,21,14,45,17.80
2009,05,21,14,46,17.90
2009,05,21,14,47,18.00
2009,05,21,14,48,18.00
2009,05,21,14,49,18.10
2009,05,21,14,50,18.20
2009,05,21,14,51,18.20
2009,05,21,14,52,18.10
2009,05,21,14,53,17.90
2009,05,21,14,54,17.70
2009,05,21,14,55,17.70
2009,05,21,14,56,17.60
2009,05,21,14,57,17.50
2009,05,21,14,58,17.50
2009,05,21,14,59,17.50
2009,05,21,15,00,17.40
2009,05,21,15,01,17.40
2009,05,21,15,02,17.40
2009,05,21,15,03,17.40
2009,05,21,15,04,17.40
2009,05,21,15,05,17.50
2009,05,21,15,06,17.50
2009,05,21,15,07,17.50
2009,05,21,15,08,17.50
2009,05,21,15,09,17.60
2009,05,21,15,10,17.70
2009,05,21,15,11,17.80
2009,05,21,15,12,17.80
2009,05,21,15,13,17.90
2009,05,21,15,14,17.90
2009,05,21,15,15,17.90
2009,05,21,15,16,17.90
2009,05,21,15,17,18.00
2009,05,21,15,18,18.10
2009,05,21,15,19,18.10
2009,05,21,15,20,18.10
2009,05,21,15,21,18.10
2009,05,21,15,22,18.00
2009,05,21,15,23,18.00
2009,05,21,15,24,18.00
2009,05,21,15,25,18.10
2009,05,21,15,26,18.10
2009,05,21,15,27,18.20
2009,05,21,15,28,18.30
2009,05,21,15,29,18.30
2009,05,21,15,30,18.30
2009,05,21,15,31,18.30
2009,05,21,15,32,18.20
2009,05,21,15,33,18.20
2009,05,21,15,34,18.30
2009,05,21,15,35,18.30
2009,05,21,15,36,18.30
2009,05,21,15,37,18.40
2009,05,21,15,38,18.50
2009,05,21,15,39,18.50
2009,05,21,15,40,18.60
2009,05,21,15,41,18.70
2009,05,21,15,42,18.80
2009,05,21,15,43,18.80
2009,05,21,15,44,18.80
2009,05,21,15,45,18.80
2009,05,21,15,46,18.80
2009,05,21,15,47,18.90
2009,05,21,15,48,18.80
2009,05,21,15,49,18.80
2009,05,21,15,50,18.70
2009,05,21,15,51,18.60
2009,05,21,15,52,18.50
2009,05,21,15,53,18.40
2009,05,21,15,54,18.30
2009,05,21,15,55,18.20
2009,05,21,15,56,18.10
2009,05,21,15,57,18.00
2009,05,21,15,58,18.00
2009,05,21,15,59,18.00
2009,05,21,16,00,18.00
2009,05,21,16,01,18.10
2009,05,21,16,02,18.20
2009,05,21,16,03,18.30
2009,05,21,16,04,18.40
2009,05,21,16,05,18.50
2009,05,21,16,06,18.60
2009,05,21,16,07,18.60
2009,05,21,16,08,18.50
2009,05,21,16,09,18.40
2009,05,21,16,10,18.40
2009,05,21,16,11,18.40
2009,05,21,16,12,18.40
2009,05,21,16,13,18.50
2009,05,21,16,14,18.60
2009,05,21,16,15,18.60
2009,05,21,16,16,18.70
2009,05,21,16,17,18.80
2009,05,21,16,18,18.70
2009,05,21,16,19,18.70
2009,05,21,16,20,18.60
2009,05,21,16,21,18.60
2009,05,21,16,22,18.50
2009,05,21,16,23,18.50
2009,05,21,16,24,18.40
2009,05,21,16,25,18.40
2009,05,21,16,26,18.40
2009,05,21,16,27,18.40
2009,05,21,16,28,18.40
2009,05,21,16,29,18.40
2009,05,21,16,30,18.40
2009,05,21,16,31,18.50
2009,05,21,16,32,18.50
2009,05,21,16,33,18.60
2009,05,21,16,34,18.60
2009,05,21,16,35,18.60
2009,05,21,16,36,18.50
2009,05,21,16,37,18.40
2009,05,21,16,38,18.40
2009,05,21,16,39,18.40
2009,05,21,16,40,18.40
2009,05,21,16,41,18.50
2009,05,21,16,42,18.50
2009,05,21,16,43,18.60
2009,05,21,16,44,18.70
2009,05,21,16,45,18.80
2009,05,21,16,46,18.90
2009,05,21,16,47,19.00
2009,05,21,16,48,19.00
2009,05,21,16,49,18.80
2009,05,21,16,50,18.70
2009,05,21,16,51,18.60
2009,05,21,16,52,18.60
2009,05,21,16,53,18.60
2009,05,21,16,54,18.60
2009,05,21,16,55,18.60
2009,05,21,16,56,18.60
2009,05,21,16,57,18.60
2009,05,21,16,58,18.60
2009,05,21,16,59,18.60
2009,05,21,17,00,18.60
2009,05,21,17,01,18.60
2009,05,21,17,02,18.60
2009,05,21,17,03,18.70
2009,05,21,17,04,18.70
2009,05,21,17,05,18.70
2009,05,21,17,06,18.70
2009,05,21,17,07,18.70
2009,05,21,17,08,18.70
2009,05,21,17,09,18.80
2009,05,21,17,10,18.80
2009,05,21,17,11,18.80
2009,05,21,17,12,18.80
2009,05,21,17,13,18.80
2009,05,21,17,14,18.80
2009,05,21,17,15,18.80
2009,05,21,17,16,18.70
2009,05,21,17,17,18.70
2009,05,21,17,18,18.60
2009,05,21,17,19,18.60
2009,05,21,17,20,18.60
2009,05,21,17,21,18.60
2009,05,21,17,22,18.60
2009,05,21,17,23,18.60
2009,05,21,17,24,18.60
2009,05,21,17,25,18.60
2009,05,21,17,26,18.60
2009,05,21,17,27,18.60
2009,05,21,17,28,18.60
2009,05,21,17,29,18.60
2009,05,21,17,30,18.60
2009,05,21,17,31,18.60
2009,05,21,17,32,18.60
2009,05,21,17,33,18.60
2009,05,21,17,34,18.60
2009,05,21,17,35,18.50
2009,05,21,17,36,18.40
2009,05,21,17,37,18.30
2009,05,21,17,38,18.30
2009,05,21,17,39,18.30
2009,05,21,17,40,18.30
2009,05,21,17,41,18.30
2009,05,21,17,42,18.30
2009,05,21,17,43,18.30
2009,05,21,17,44,18.30
2009,05,21,17,45,18.40
2009,05,21,17,46,18.40
2009,05,21,17,47,18.40
2009,05,21,17,48,18.40
2009,05,21,17,49,18.40
2009,05,21,17,50,18.40
2009,05,21,17,51,18.50
2009,05,21,17,52,18.50
2009,05,21,17,53,18.50
2009,05,21,17,54,18.50
2009,05,21,17,55,18.50
2009,05,21,17,56,18.40
2009,05,21,17,57,18.40
2009,05,21,17,58,18.40
2009,05,21,17,59,18.40
2009,05,21,18,00,18.40
2009,05,21,18,01,18.30
2009,05,21,18,02,18.40
2009,05,21,18,03,18.40
2009,05,21,18,04,18.40
2009,05,21,18,05,18.40
2009,05,21,18,06,18.40
2009,05,21,18,07,18.50
2009,05,21,18,08,18.50
2009,05,21,18,09,18.50
2009,05,21,18,10,18.40
2009,05,21,18,11,18.40
2009,05,21,18,12,18.40
2009,05,21,18,13,18.40
2009,05,21,18,14,18.40
2009,05,21,18,15,18.40
2009,05,21,18,16,18.40
2009,05,21,18,17,18.40
2009,05,21,18,18,18.40
2009,05,21,18,19,18.40
2009,05,21,18,20,18.40
2009,05,21,18,21,18.40
2009,05,21,18,22,18.50
2009,05,21,18,23,18.50
2009,05,21,18,24,18.50
2009,05,21,18,25,18.50
2009,05,21,18,26,18.50
2009,05,21,18,27,18.50
2009,05,21,18,28,18.50
2009,05,21,18,29,18.40
2009,05,21,18,30,18.40
2009,05,21,18,31,18.40
2009,05,21,18,32,18.30
2009,05,21,18,33,18.30
2009,05,21,18,34,18.30
2009,05,21,18,35,18.20
2009,05,21,18,36,18.20
2009,05,21,18,37,18.20
2009,05,21,18,38,18.20
2009,05,21,18,39,18.20
2009,05,21,18,40,18.20
2009,05,21,18,41,18.20
2009,05,21,18,42,18.20
2009,05,21,18,43,18.20
2009,05,21,18,44,18.10
2009,05,21,18,45,18.10
2009,05,21,18,46,18.10
2009,05,21,18,47,18.00
2009,05,21,18,48,18.10
2009,05,21,18,49,18.10
2009,05,21,18,50,18.10
2009,05,21,18,51,18.10
2009,05,21,18,52,18.10
2009,05,21,18,53,18.10
2009,05,21,18,54,18.10
2009,05,21,18,55,18.10
2009,05,21,18,56,18.10
2009,05,21,18,57,18.10
2009,05,21,18,58,18.10
